Location: Copper Breaks State Park
(34.1132°N, 99.7492°W)
Time: 16:16:27
(UTC-05:00)

Amateur Radio Satellites - All Passes

Search period start: 01 May 2016 15:46
Search period end: 02 May 2016 15:46
Location: Copper Breaks State Park, 34.1132°N, 99.7492°W

Satellite Date Start Highest point End Downlink Frequencies (MHz)
Time Altitude Azimuth
TISAT 1 01 May 15:48:51 15:51:30 16° 292° (WNW) 15:54:07 437.305
ISS 01 May 16:05:20 16:08:36 83° 222° (SW) 16:11:51 145.825
O/OREOS (USA 219) 01 May 16:07:11 16:11:46 73° 290° (WNW) 16:16:23 437.305
SO-50 01 May 16:15:31 16:17:25 12° 45° (NE) 16:19:18 436.795
ITAMSAT 1 01 May 16:23:49 16:28:34 36° 261° (W) 16:33:20 435.822/435.867
PHONESAT 2.4 01 May 16:24:48 16:27:59 84° 24° (NNE) 16:31:09 2401.200-2431.200
MOZHAYETS 4 01 May 16:25:22 16:26:49 11° 92° (E) 16:28:17
KKS-1 01 May 16:31:25 16:34:54 22° 96° (E) 16:38:23 437.445
ITUPSAT 1 01 May 16:32:46 16:37:10 39° 288° (WNW) 16:41:35 437.325
Gurwin Techsat 1B 01 May 16:33:13 16:35:29 13° 268° (W) 16:37:46 435.225
SWISSCUBE 01 May 16:43:22 16:47:21 27° 290° (WNW) 16:51:18 437.505
CUSAT 1 01 May 16:45:53 16:48:50 39° 284° (WNW) 16:52:35 437.405
STARS 01 May 16:52:25 16:55:32 19° 95° (E) 16:58:38 437.465
HORYU 2 01 May 16:52:57 16:56:39 26° 70° (ENE) 17:00:21 437.375
PCSat 01 May 16:55:55 17:01:20 77° 297° (WNW) 17:06:47 145.827
AO-7 01 May 17:05:12 17:13:21 61° 256° (WSW) 17:21:32 29.400- 29.500
DANDE 01 May 17:15:48 17:18:23 44° 282° (WNW) 17:21:25 436.750
BEESAT 01 May 17:18:12 17:20:29 14° 295° (WNW) 17:22:47 436.000
NOAA 18 01 May 17:44:09 17:47:27 16° 64° (ENE) 17:50:46 137.9125
CUTE-I 01 May 17:45:41 17:46:55 11° 62° (ENE) 17:48:09 437.470
SO-50 01 May 17:53:48 17:58:29 76° 243° (WSW) 18:02:59 436.795
MOZHAYETS 4 01 May 17:59:48 18:04:15 54° 285° (WNW) 18:08:42
PHONESAT 2.4 01 May 18:02:45 18:04:32 14° 217° (SW) 18:06:20 2401.200-2431.200
CUBESAT XI-V 01 May 18:05:15 18:08:06 16° 93° (E) 18:10:56 437.345
KKS-1 01 May 18:07:39 18:11:24 27° 290° (WNW) 18:15:09 437.445
BRITE-PL 01 May 18:11:05 18:14:00 16° 65° (ENE) 18:17:04 437.365/2234.400
Cubesat XI-IV 01 May 18:25:54 18:30:24 29° 69° (ENE) 18:34:54 437.490
STARS 01 May 18:28:02 18:31:53 31° 289° (WNW) 18:35:44 437.465
NOAA 15 01 May 18:28:25 18:33:26 47° 72° (ENE) 18:38:28 137.62
HORYU 2 01 May 18:29:31 18:33:06 23° 264° (W) 18:36:42 437.375
PCSat 01 May 18:44:42 18:45:36 10° 314° (NW) 18:46:29 145.827
M-CUBED/EXP-1 PRIME 01 May 18:56:54 19:00:55 29° 66° (ENE) 19:04:56 437.505
Cosmos 2491 01 May 19:02:10 19:10:58 68° 82° (E) 19:19:39 435.465 / 435.565
BEESAT 3 01 May 19:04:40 19:08:19 38° 114° (ESE) 19:12:00 437.485
BEESAT 2 01 May 19:09:49 19:13:02 24° 111° (ESE) 19:16:17 435.950
YUBILEINY 01 May 19:10:11 19:17:56 37° 87° (E) 19:25:38 435.215
HO-68 01 May 19:10:28 19:12:25 11° 55° (NE) 19:14:22 435.675
LilacSat-2 01 May 19:11:17 19:15:09 74° 78° (ENE) 19:19:02 437.200
AUBIESAT-1 01 May 19:16:31 19:20:47 38° 68° (ENE) 19:25:03 437.475
CUTE-I 01 May 19:20:52 19:26:12 82° 257° (WSW) 19:31:33 437.470
NOAA 18 01 May 19:22:09 19:27:35 58° 258° (WSW) 19:33:01 137.9125
JUGNU 01 May 19:22:58 19:26:33 16° 170° (S) 19:30:08 437.505
GOMX 1 01 May 19:27:44 19:32:27 50° 73° (ENE) 19:37:30 467.674
DOVE 4 01 May 19:31:14 19:35:26 27° 69° (ENE) 19:39:47 437.250
CUBESAT XI-V 01 May 19:41:12 19:45:37 42° 287° (WNW) 19:50:01 437.345
BRITE-PL 01 May 19:47:31 19:51:58 46° 262° (W) 19:56:49 437.365/2234.400
Cubesat XI-IV 01 May 20:05:42 20:10:20 30° 263° (W) 20:14:59 437.490
NOAA 15 01 May 20:09:59 20:13:23 17° 266° (W) 20:16:49 137.62
SEEDS 01 May 20:13:28 20:15:20 13° 68° (ENE) 20:17:13 437.485
COMPASS 1 01 May 20:20:30 20:21:12 10° 66° (ENE) 20:21:54 437.405
SRMSAT 01 May 20:21:42 20:23:30 11° 164° (SSE) 20:25:17 437.500
CINEMA 3 01 May 20:24:10 20:28:30 30° 71° (ENE) 20:32:51 145.822/145.860
STRAND 1 01 May 20:26:35 20:31:25 42° 99° (E) 20:36:15 437.568
M-CUBED/EXP-1 PRIME 01 May 20:31:23 20:35:19 26° 259° (W) 20:39:18 437.505
AIST 2 01 May 20:32:30 20:34:08 12° 108° (ESE) 20:35:46 435.215
BEESAT 3 01 May 20:43:47 20:46:10 15° 309° (NW) 20:48:34 437.485
CANX-2 01 May 20:43:56 20:48:01 49° 75° (ENE) 20:52:06 2200.000
BEESAT 2 01 May 20:47:37 20:50:48 23° 306° (NW) 20:54:01 435.950
AAUSAT CUBESAT 2 01 May 20:50:09 20:53:07 20° 70° (ENE) 20:56:06 437.432
HO-68 01 May 20:51:46 20:58:53 73° 72° (ENE) 21:06:01 435.675
AUBIESAT-1 01 May 20:51:59 20:55:16 19° 261° (W) 20:58:35 437.475
Cosmos 2491 01 May 21:00:47 21:06:53 21° 279° (W) 21:12:58 435.465 / 435.565
Oscar 11 01 May 21:01:22 21:02:04 10° 66° (ENE) 21:02:44 145.826/435.025
YUBILEINY 01 May 21:06:25 21:14:30 41° 283° (WNW) 21:22:37 435.215
GOMX 1 01 May 21:08:04 21:10:51 15° 269° (W) 21:13:45 467.674
DOVE 4 01 May 21:08:37 21:12:57 30° 265° (W) 21:17:29 437.250
FUNcube-1 01 May 21:10:10 21:11:46 12° 66° (ENE) 21:13:21 145.935
JUGNU 01 May 21:10:40 21:14:53 20° 180° (S) 21:19:07 437.505
RS-15 01 May 21:15:27 21:24:17 28° 103° (ESE) 21:33:27 29.354- 29.394
UWE-3 01 May 21:15:55 21:19:33 23° 70° (ENE) 21:23:10 435.000/436.395/437.385
CUTE 1.7 + AOD 2 01 May 21:16:51 21:21:03 73° 258° (WSW) 21:25:16 437.475
CUBEBUG 2 01 May 21:19:53 21:24:15 37° 73° (ENE) 21:28:34 437.445
Cosmos 2504 01 May 21:32:40 21:40:04 81° 94° (E) 21:47:14 435.465 / 435.565
PRISM 01 May 21:39:01 21:43:04 48° 100° (E) 21:47:06 437.425
SEEDS 01 May 21:46:41 21:50:39 42° 261° (W) 21:54:37 437.485
ZACube-1 01 May 21:48:53 21:53:02 35° 73° (ENE) 21:57:07 437.345
COMPASS 1 01 May 21:52:15 21:56:16 52° 260° (W) 22:00:19 437.405
CINEMA 3 01 May 22:01:27 22:05:32 25° 265° (W) 22:09:41 145.822/145.860
STRAND 1 01 May 22:06:42 22:10:14 19° 293° (WNW) 22:13:47 437.568
SRMSAT 01 May 22:07:54 22:11:57 19° 174° (S) 22:16:00 437.500
AIST 2 01 May 22:08:11 22:12:10 46° 302° (WNW) 22:16:10 435.215
DELFI C3 01 May 22:13:06 22:16:38 33° 73° (ENE) 22:20:11 145.870
CANX-2 01 May 22:23:22 22:24:06 10° 268° (W) 22:24:51 2200.000
AAUSAT CUBESAT 2 01 May 22:24:58 22:28:25 26° 263° (W) 22:31:53 437.432
Oscar 11 01 May 22:33:24 22:37:38 58° 260° (W) 22:41:54 145.826/435.025
HO-68 01 May 22:42:45 22:47:07 17° 267° (W) 22:51:29 435.675
FUNcube-1 01 May 22:43:02 22:47:30 56° 260° (W) 22:51:56 145.935
UWE-3 01 May 22:51:47 22:55:49 29° 263° (W) 22:59:50 435.000/436.395/437.385
CUBEBUG 2 01 May 22:57:39 23:00:55 18° 266° (W) 23:04:11 437.445
JUGNU 01 May 22:59:43 23:03:13 16° 191° (S) 23:06:43 437.505
HUMSAT D 01 May 23:02:30 23:06:41 59° 76° (ENE) 23:10:50 437.325/437.525
AO-85 01 May 23:15:18 23:20:00 81° 62° (ENE) 23:24:13 145.980
PRISM 01 May 23:16:30 23:17:55 12° 294° (WNW) 23:19:20 437.425
CUBEBUG 1 01 May 23:19:25 23:20:20 11° 65° (ENE) 23:21:16 437.445
UNISAT 6 01 May 23:20:35 23:24:11 25° 96° (E) 23:27:43 437.425
RS-15 01 May 23:24:25 23:35:34 70° 302° (WNW) 23:47:26 29.354- 29.394
ZACube-1 01 May 23:26:16 23:29:20 18° 266° (W) 23:32:24 437.345
Cosmos 2504 01 May 23:30:45 23:34:10 14° 291° (WNW) 23:37:36 435.465 / 435.565
TIGRISAT 01 May 23:38:11 23:42:13 39° 98° (E) 23:46:12 435.000
VELOX 1 01 May 23:41:03 23:44:20 21° 69° (ENE) 23:47:38 145.980
DX 1 01 May 23:42:13 23:45:16 19° 68° (ENE) 23:48:20 434.975-435.025
DELFI C3 01 May 23:49:32 23:51:35 14° 266° (W) 23:53:38 145.870
UKube-1 01 May 23:50:49 23:53:52 19° 68° (ENE) 23:56:55 .
50 SAT 01 May 23:51:30 23:54:37 27° 72° (ENE) 23:57:43 437.505
SRMSAT 01 May 23:56:16 00:00:28 20° 184° (S) 00:04:39 437.500
ANTELSAT 02 May 00:02:17 00:06:37 84° 102° (ESE) 00:10:53 437.575/2403.000
AISAT 02 May 00:11:49 00:16:05 49° 74° (ENE) 00:20:24 437.250
QB50P2 02 May 00:12:08 00:15:07 18° 95° (E) 00:18:04 145.880/145.840
DUCHIFAT 1 02 May 00:13:40 00:16:18 16° 94° (E) 00:18:55 145.980
POLYITAN 1 02 May 00:14:16 00:17:16 19° 95° (E) 00:20:14 437.675
POPSAT HIP 1 02 May 00:17:05 00:20:11 20° 95° (E) 00:23:15 437.405
QB50P1 02 May 00:20:16 00:23:34 22° 96° (E) 00:26:50 145.935-145.965
SPROUT 02 May 00:22:35 00:25:49 21° 69° (ENE) 00:29:03 437.525
ESTCUBE 1 02 May 00:25:41 00:30:09 83° 256° (WSW) 00:34:39 437.505/2401.250
CUBEBUG 1 02 May 00:51:46 00:56:04 59° 260° (W) 01:00:24 437.445
GONETS M04 02 May 00:53:58 01:01:59 40° 87° (E) 01:09:59
AIST 1 02 May 00:54:02 00:57:43 28° 90° (E) 01:01:26
NANOSAT C BR1 02 May 00:55:01 00:59:11 57° 100° (E) 01:03:18 145.865
UNISAT 6 02 May 00:57:27 01:00:45 22° 290° (WNW) 01:04:00 437.425
BUGSAT 1 02 May 00:59:31 01:03:04 26° 97° (E) 01:06:33 437.445
TISAT 1 02 May 01:01:20 01:04:01 16° 68° (ENE) 01:06:40 437.305
TIGRISAT 02 May 01:16:11 01:18:33 15° 293° (WNW) 01:20:52 435.000
VELOX 1 02 May 01:16:44 01:20:35 29° 263° (W) 01:24:28 145.980
DX 1 02 May 01:17:20 01:21:12 31° 262° (W) 01:25:06 434.975-435.025
UKube-1 02 May 01:25:52 01:29:40 30° 262° (W) 01:33:30 .
50 SAT 02 May 01:26:23 01:28:25 14° 265° (W) 01:30:27 437.505
JAS-2 02 May 01:38:16 01:44:45 28° 94° (E) 01:51:07 435.910
CUSAT 1 02 May 01:40:50 01:44:40 14° 69° (ENE) 01:48:38 437.405
RS-15 02 May 01:42:40 01:50:46 21° 329° (NNW) 01:59:12 29.354- 29.394
Cosmos 2499 02 May 01:42:50 01:49:22 40° 89° (E) 01:55:50 435.465 / 435.565
SRMSAT 02 May 01:46:09 01:48:57 13° 194° (SSW) 01:51:43 437.500
Oscar 19 02 May 01:47:13 01:48:58 12° 92° (E) 01:50:42 437.125/150
QB50P2 02 May 01:47:15 01:50:54 29° 288° (WNW) 01:54:32 145.880/145.840
PCSat 02 May 01:47:46 01:52:49 38° 58° (ENE) 01:57:50 145.827
DUCHIFAT 1 02 May 01:48:17 01:52:03 32° 288° (WNW) 01:55:47 145.980
POLYITAN 1 02 May 01:49:25 01:53:03 28° 289° (WNW) 01:56:39 437.675
AISAT 02 May 01:51:10 01:52:48 12° 267° (W) 01:54:27 437.250
POPSAT HIP 1 02 May 01:52:21 01:55:56 27° 289° (WNW) 01:59:29 437.405
QB50P1 02 May 01:55:48 01:59:15 24° 289° (WNW) 02:02:39 145.935-145.965
SPROUT 02 May 01:57:55 02:01:35 27° 263° (W) 02:05:16 437.525
ITUPSAT 1 02 May 02:00:13 02:02:41 14° 65° (ENE) 02:05:10 437.325
SWISSCUBE 02 May 02:09:06 02:12:33 20° 68° (ENE) 02:16:00 437.505
DANDE 02 May 02:14:26 02:16:54 12° 70° (ENE) 02:19:29 436.750
O/OREOS (USA 219) 02 May 02:21:03 02:25:33 71° 253° (WSW) 02:29:59 437.305
AIST 1 02 May 02:32:22 02:35:18 18° 285° (WNW) 02:38:16
NANOSAT C BR1 02 May 02:34:15 02:34:22 10° 295° (WNW) 02:34:28 145.865
BUGSAT 1 02 May 02:35:11 02:38:15 20° 291° (WNW) 02:41:17 437.445
TISAT 1 02 May 02:35:29 02:39:21 34° 262° (W) 02:43:14 437.305
BEESAT 02 May 02:41:17 02:45:42 40° 72° (ENE) 02:50:09 436.000
GONETS M04 02 May 02:50:37 02:58:41 39° 284° (WNW) 03:06:47
Gurwin Techsat 1B 02 May 03:10:16 03:15:04 34° 98° (E) 03:19:50 435.225
CUSAT 1 02 May 03:20:01 03:27:27 83° 82° (E) 03:35:34 437.405
JAS-2 02 May 03:22:20 03:29:54 56° 289° (WNW) 03:37:26 435.910
Oscar 19 02 May 03:23:30 03:28:40 66° 286° (WNW) 03:33:47 437.125/150
KKS-1 02 May 03:27:05 03:29:22 14° 66° (ENE) 03:31:39 437.445
PCSat 02 May 03:31:41 03:35:57 24° 254° (WSW) 03:40:13 145.827
ITUPSAT 1 02 May 03:35:26 03:40:03 51° 260° (W) 03:44:42 437.325
Cosmos 2499 02 May 03:36:32 03:42:29 28° 285° (WNW) 03:48:26 435.465 / 435.565
SWISSCUBE 02 May 03:45:45 03:50:05 34° 262° (W) 03:54:25 437.505
STARS 02 May 03:47:18 03:48:42 11° 65° (ENE) 03:50:06 437.465
DANDE 02 May 03:53:22 04:00:10 77° 81° (E) 04:08:23 436.750
RS-15 02 May 04:05:59 04:10:29 12° 7° (N) 04:15:01 29.354- 29.394
BEESAT 02 May 04:20:34 04:23:37 17° 266° (W) 04:26:39 436.000
ITAMSAT 1 02 May 04:39:53 04:45:04 77° 284° (WNW) 04:50:14 435.822/435.867
Gurwin Techsat 1B 02 May 04:50:32 04:54:48 25° 292° (WNW) 04:59:03 435.225
MOZHAYETS 4 02 May 04:57:29 05:02:04 90° 348° (NNW) 05:06:39
KKS-1 02 May 05:01:11 05:05:29 46° 260° (W) 05:09:49 437.445
BEESAT 3 02 May 05:02:38 05:06:36 82° 243° (WSW) 05:10:31 437.485
CUSAT 1 02 May 05:04:17 05:08:55 18° 275° (W) 05:13:46 437.405
CUBESAT XI-V 02 May 05:07:34 05:08:05 10° 64° (ENE) 05:08:36 437.345
BEESAT 2 02 May 05:08:11 05:12:08 63° 60° (ENE) 05:16:03 435.950
AO-7 02 May 05:10:48 05:19:02 60° 104° (ESE) 05:27:14 29.400- 29.500
STARS 02 May 05:20:10 05:24:31 57° 259° (W) 05:28:54 437.465
YUBILEINY 02 May 05:27:04 05:30:58 13° 65° (ENE) 05:34:52 435.215
DANDE 02 May 05:38:10 05:42:38 18° 272° (W) 05:47:32 436.750
Cosmos 2491 02 May 06:07:27 06:11:19 14° 78° (ENE) 06:15:12 435.465 / 435.565
RS-15 02 May 06:18:49 06:29:08 30° 41° (NE) 06:39:26 29.354- 29.394
HORYU 2 02 May 06:23:05 06:27:32 87° 106° (ESE) 06:31:55 437.375
AIST 2 02 May 06:33:02 06:36:49 33° 56° (ENE) 06:40:34 435.215
CUBESAT XI-V 02 May 06:40:17 06:44:50 67° 259° (W) 06:49:26 437.345
NOAA 15 02 May 06:47:53 06:52:09 24° 96° (E) 06:56:23 137.62
Cubesat XI-IV 02 May 06:47:54 06:50:50 15° 93° (E) 06:53:46 437.490
LilacSat-2 02 May 06:51:38 06:51:53 10° 92° (E) 06:52:07 437.200
AO-7 02 May 07:04:32 07:11:13 28° 300° (WNW) 07:17:56 29.400- 29.500
ISS 02 May 07:06:59 07:09:16 18° 128° (SE) 07:11:33 145.825
YUBILEINY 02 May 07:20:18 07:29:02 83° 84° (E) 07:37:47 435.215
Cosmos 2504 02 May 07:29:29 07:35:15 22° 73° (ENE) 07:41:15 435.465 / 435.565
GOMX 1 02 May 07:34:11 07:38:23 23° 93° (E) 07:42:25 467.674
STRAND 1 02 May 07:38:48 07:43:33 41° 72° (ENE) 07:48:20 437.568
CUTE-I 02 May 07:41:48 07:47:01 55° 101° (E) 07:52:13 437.470
NOAA 18 02 May 07:47:56 07:53:25 83° 104° (ESE) 07:58:51 137.9125
BRITE-PL 02 May 07:55:20 08:01:04 80° 102° (ESE) 08:06:38 437.365/2234.400
Cosmos 2491 02 May 07:57:56 08:06:45 87° 96° (E) 08:15:39 435.465 / 435.565
SO-50 02 May 08:03:38 08:08:31 85° 119° (ESE) 08:13:28 436.795
AIST 2 02 May 08:12:18 08:15:00 17° 251° (WSW) 08:17:42 435.215
M-CUBED/EXP-1 PRIME 02 May 08:14:58 08:18:21 29° 101° (E) 08:21:30 437.505
LilacSat-2 02 May 08:22:48 08:26:22 40° 286° (WNW) 08:29:54 437.200
PRISM 02 May 08:25:35 08:28:39 21° 70° (ENE) 08:31:43 437.425
HO-68 02 May 08:25:55 08:29:55 16° 93° (E) 08:33:54 435.675
Cubesat XI-IV 02 May 08:26:00 08:31:12 55° 287° (WNW) 08:36:22 437.490
NOAA 15 02 May 08:27:08 08:31:55 35° 290° (WNW) 08:36:41 137.62
RS-15 02 May 08:30:45 08:43:08 84° 245° (WSW) 08:55:22 29.354- 29.394
AUBIESAT-1 02 May 08:34:05 08:37:42 42° 103° (ESE) 08:41:05 437.475
CANX-2 02 May 08:34:57 08:36:18 11° 92° (E) 08:37:38 2200.000
ISS 02 May 08:42:33 08:45:32 32° 322° (NW) 08:48:31 145.825
CUTE 1.7 + AOD 2 02 May 09:05:59 09:09:27 24° 96° (E) 09:12:55 437.475
DOVE 4 02 May 09:10:57 09:16:04 75° 283° (WNW) 09:20:51 437.250
GOMX 1 02 May 09:11:32 09:16:30 37° 289° (WNW) 09:21:15 467.674
STRAND 1 02 May 09:19:21 09:22:51 19° 265° (W) 09:26:22 437.568
YUBILEINY 02 May 09:19:53 09:24:39 16° 280° (W) 09:29:25 435.215
Cosmos 2504 02 May 09:21:25 09:28:56 61° 268° (W) 09:37:01 435.465 / 435.565
CUTE-I 02 May 09:23:22 09:26:34 16° 295° (WNW) 09:29:45 437.470
NOAA 18 02 May 09:31:44 09:33:18 11° 299° (WNW) 09:34:52 137.9125
SEEDS 02 May 09:34:08 09:38:04 38° 99° (E) 09:41:58 437.485
BRITE-PL 02 May 09:36:20 09:38:43 13° 297° (WNW) 09:41:06 437.365/2234.400
COMPASS 1 02 May 09:38:57 09:42:39 30° 97° (E) 09:46:19 437.405
SO-50 02 May 09:47:36 09:49:38 12° 315° (NW) 09:51:40 436.795
M-CUBED/EXP-1 PRIME 02 May 09:50:20 09:52:36 15° 298° (WNW) 09:54:46 437.505
CINEMA 3 02 May 09:59:29 10:04:05 71° 284° (WNW) 10:08:26 145.822/145.860
Cosmos 2491 02 May 09:59:34 10:04:40 16° 293° (WNW) 10:09:49 435.465 / 435.565
PRISM 02 May 10:00:30 10:03:48 24° 263° (W) 10:07:07 437.425
CANX-2 02 May 10:08:18 10:12:21 46° 286° (WNW) 10:16:23 2200.000
AAUSAT CUBESAT 2 02 May 10:10:07 10:14:13 60° 100° (E) 10:18:19 437.432
AUBIESAT-1 02 May 10:10:47 10:11:42 11° 300° (WNW) 10:12:37 437.475
HO-68 02 May 10:11:02 10:18:11 77° 288° (WNW) 10:25:19 435.675
UNISAT 6 02 May 10:16:23 10:19:20 17° 68° (ENE) 10:22:15 437.425
Oscar 11 02 May 10:24:30 10:28:22 32° 98° (E) 10:32:14 145.826/435.025
PHONESAT 2.4 02 May 10:33:02 10:36:05 49° 151° (SSE) 10:39:08 2401.200-2431.200
TIGRISAT 02 May 10:33:14 10:36:59 24° 70° (ENE) 10:40:41 435.000
FUNcube-1 02 May 10:35:14 10:39:02 33° 98° (E) 10:42:47 145.935
CUTE 1.7 + AOD 2 02 May 10:41:54 10:45:08 22° 290° (WNW) 10:48:23 437.475
UWE-3 02 May 10:44:46 10:49:01 78° 101° (ESE) 10:53:09 435.000/436.395/437.385
RS-15 02 May 10:46:40 10:53:46 18° 262° (W) 11:00:51 29.354- 29.394
CUBEBUG 2 02 May 10:51:00 10:55:14 58° 285° (WNW) 10:59:20 437.445
HUMSAT D 02 May 10:51:51 10:53:22 12° 93° (E) 10:54:51 437.325/437.525
ANTELSAT 02 May 10:56:54 11:01:22 47° 74° (ENE) 11:05:47 437.575/2403.000
GONETS M04 02 May 11:10:50 11:15:25 15° 66° (ENE) 11:19:58
SEEDS 02 May 11:11:11 11:13:24 14° 292° (WNW) 11:15:38 437.485
QB50P1 02 May 11:11:14 11:12:26 11° 66° (ENE) 11:13:37 145.935-145.965
COMPASS 1 02 May 11:15:12 11:17:57 17° 291° (WNW) 11:20:42 437.405
ZACube-1 02 May 11:16:55 11:21:04 64° 284° (WNW) 11:25:09 437.345
DELFI C3 02 May 11:28:41 11:32:41 84° 282° (WNW) 11:36:41 145.870
Cosmos 2499 02 May 11:41:29 11:42:24 10° 66° (ENE) 11:43:18 435.465 / 435.565
NANOSAT C BR1 02 May 11:43:47 11:47:19 26° 71° (ENE) 11:50:53 145.865
BUGSAT 1 02 May 11:47:18 11:49:02 12° 66° (ENE) 11:50:47 437.445
UNISAT 6 02 May 11:51:18 11:55:42 40° 261° (W) 12:00:03 437.425
Oscar 11 02 May 12:01:21 12:04:14 18° 291° (WNW) 12:07:06 145.826/435.025
HO-68 02 May 12:02:11 12:04:44 12° 304° (NW) 12:07:17 435.675
AISAT 02 May 12:07:39 12:09:39 13° 93° (E) 12:11:37 437.250
TIGRISAT 02 May 12:09:32 12:13:30 27° 263° (W) 12:17:27 435.000
PHONESAT 2.4 02 May 12:10:05 12:13:01 34° 346° (NNW) 12:15:57 2401.200-2431.200
FUNcube-1 02 May 12:12:30 12:14:58 15° 292° (WNW) 12:17:25 145.935
ESTCUBE 1 02 May 12:22:20 12:26:11 27° 97° (E) 12:30:02 437.505/2401.250
HUMSAT D 02 May 12:25:19 12:29:09 40° 286° (WNW) 12:32:58 437.325/437.525
QB50P2 02 May 12:35:15 12:39:30 65° 259° (W) 12:43:46 145.880/145.840
DUCHIFAT 1 02 May 12:35:37 12:39:53 76° 260° (W) 12:44:09 145.980
ANTELSAT 02 May 12:35:51 12:38:14 14° 267° (W) 12:40:36 437.575/2403.000
POLYITAN 1 02 May 12:37:24 12:41:39 64° 259° (WSW) 12:45:56 437.675
POPSAT HIP 1 02 May 12:40:10 12:44:23 60° 259° (W) 12:48:39 437.405
AIST 1 02 May 12:41:29 12:45:54 76° 82° (E) 12:50:18
QB50P1 02 May 12:43:31 12:47:42 54° 260° (W) 12:51:54 145.935-145.965
CUBEBUG 1 02 May 12:44:16 12:48:17 33° 98° (E) 12:52:16 437.445
50 SAT 02 May 12:57:58 13:01:35 60° 101° (E) 13:05:12 437.505
Oscar 19 02 May 13:00:39 13:02:52 13° 63° (ENE) 13:05:04 437.125/150
GONETS M04 02 May 13:04:37 13:13:25 89° 85° (E) 13:22:06
DX 1 02 May 13:08:38 13:12:58 57° 101° (ESE) 13:17:15 434.975-435.025
VELOX 1 02 May 13:09:50 13:14:18 69° 102° (ESE) 13:18:44 145.980
UKube-1 02 May 13:16:04 13:20:21 56° 101° (E) 13:24:35 .
NANOSAT C BR1 02 May 13:19:44 13:22:59 21° 264° (W) 13:26:15 145.865
BUGSAT 1 02 May 13:19:54 13:23:57 47° 261° (W) 13:28:04 437.445
AO-85 02 May 13:24:22 13:29:45 70° 116° (ESE) 13:35:10 145.980
Cosmos 2499 02 May 13:28:47 13:36:36 73° 83° (E) 13:45:02 435.465 / 435.565
JAS-2 02 May 13:30:28 13:35:58 46° 70° (ENE) 13:42:12 435.910
AISAT 02 May 13:42:02 13:46:19 46° 287° (WNW) 13:50:35 437.250
SPROUT 02 May 13:46:54 13:51:11 66° 101° (E) 13:55:25 437.525
PHONESAT 2.4 02 May 13:47:42 13:50:22 24° 3° (N) 13:53:02 2401.200-2431.200
ESTCUBE 1 02 May 13:59:16 14:02:50 23° 290° (WNW) 14:06:24 437.505/2401.250
ITAMSAT 1 02 May 14:18:42 14:20:24 12° 63° (ENE) 14:22:07 435.822/435.867
CUBEBUG 1 02 May 14:21:14 14:24:18 19° 292° (WNW) 14:27:20 437.445
TISAT 1 02 May 14:22:49 14:26:53 45° 100° (E) 14:30:54 437.305
Gurwin Techsat 1B 02 May 14:27:39 14:32:30 38° 71° (ENE) 14:37:23 435.225
Oscar 19 02 May 14:36:25 14:41:32 67° 258° (WSW) 14:46:43 437.125/150
BEESAT 02 May 14:46:40 14:49:04 14° 93° (E) 14:51:28 436.000
DX 1 02 May 14:47:26 14:48:36 11° 295° (WNW) 14:49:45 434.975-435.025
O/OREOS (USA 219) 02 May 14:51:20 14:54:45 21° 101° (E) 14:58:11 437.305
UKube-1 02 May 14:54:45 14:55:51 11° 295° (WNW) 14:56:58 .
GONETS M04 02 May 15:04:43 15:08:54 14° 282° (WNW) 15:13:05
AO-85 02 May 15:07:11 15:10:44 17° 312° (NW) 15:14:18 145.980
ISS 02 May 15:12:58 15:16:06 44° 40° (NE) 15:19:14 145.825
JAS-2 02 May 15:16:57 15:21:21 22° 269° (W) 15:26:09 435.910
Cosmos 2499 02 May 15:23:58 15:28:57 18° 277° (W) 15:34:10 435.465 / 435.565
PHONESAT 2.4 02 May 15:24:32 15:27:38 50° 19° (NNE) 15:30:43 2401.200-2431.200
